Showing default

DMSP 5D-2 F14 (USA 131), 24753

Orbit data source: Space-Track

DMSP 5D-2 F14 (USA 131), 24753 is a payload satellite owned by USAF SMC (US) in SSO that was launched on Fri, 04 Apr 1997 UTC via a TITAN II SLV launch vehicle from the Air Force Western Test Range (AFWTR). Payload-class satellites include a variety of spacecraft equipped with specific instruments for various scientific and technological missions. These include communications satellites like Starlink; space stations such as the ISS; scientific satellites like the Hubble; Earth observation satellites from companies like Planet Labs, Umbra, and HawkEye 360; GPS; miniature CubeSats for education and research; and military/defense satellites.

Loading next visibility...
Identifier
24753, 1997-012A
Orbit
SSO
Country
Flag of USUS
Related business
Manufacturer
LMT/EW
Mission
Non-operational Defense Weather
Bus & Motor
BLOCK 5D, STAR 37S
Mass
1,456 kg wet, 749 kg dry
Launch date (UTC)
1997-04-04 (29 years ago)
Launch vehicle
TITAN II SLV
Launch site
Air Force Western Test Range (AFWTR)
Object type
Payload
Rocket body
Debris
Shape & HBR
Cyl + 1 Pan, 6.0 m
Radar Cross Section
4.290 m², Large (>1 m²)

Expand to show TLE details & history
Last TLE update: 11 hours ago

TLE from 11 hours ago
0 DMSP 5D-2 F14 (USA 131)
1 24753U 97012A   26171.42899416  .00000083  00000-0  63221-4 0  9999
2 24753  98.7577 219.9428 0009897  83.9415 276.2887 14.16772915508752
Epoch: 2026-06-20T10:17Z
TLE epoch observation values (Epoch: 2026-06-20T10:17:45.095Z)
Latitude
-0.00003°
Longitude
156.86116°
Altitude
838.42 km
Speed
7.434 km/s
True Right ascension
14h 39m 46s
True Declination
0° 00' 00"
Sunlit
Object was in full shadow at epoch
Visualization orbit readout
Latitude
Unknown
Longitude
Unknown
Altitude
Unknown
Speed
Unknown
Apparent Right ascension
Unknown
Apparent Declination
Unknown
Sunlit
N/A
Visualization observer readout
Local Sidereal Time
08:33:46
Azimuth
Unknown
Elevation
Unknown
Doppler factor
Unknown
Orbital elements
Apogee altitude
840.59 km
Perigee altitude
826.315 km
Semi-major axis
7,211.589 km
Eccentricity
0.00099
Inclination
98.7577°
RAAN
219.9428°
Arg. of periapsis
83.9415°
True anomaly
276.17596°
Mean anomaly
276.2887°
Eccentric anomaly
276.23233°
Mean motion
3.54402 °/min
Orbital period
101.58 mins
BSTAR
0.000063221
Loading maneuver chart data...
Computing Atmospheric mass density...

Documentation

Showing up to 5 results
|